N7LK Weather Reports


time (UTC)temp
C
wind
direction
speed
KPH
gust
KPH
rain 1hr
cm
rain 24hr
cm
rain mn
cm
humidity
%
barometer
mb
20260901005354 31 167 4.8 11.3 0.00 0.66 0.56 42 1010.3
20260901004340 31 158 4.8 11.3 0.00 0.66 0.56 42 1010.2
20260901003328 32 53 6.4 12.9 0.00 0.66 0.56 43 1010.0
20260901002334 32 107 4.8 11.3 0.00 0.66 0.56 42 1010.3
20260901001345 32 65 1.6 9.7 0.00 0.66 0.56 42 1010.5
20260901000353 32 117 6.4 17.7 0.00 0.66 0.56 43 1010.4
20260831235337 32 86 4.8 17.7 0.00 0.66 0.56 44 1010.6
20260831234345 32 32 3.2 12.9 0.00 0.66 0.56 45 1010.6
20260831233337 32 75 6.4 11.3 0.00 0.66 0.56 45 1010.7
20260831232345 31 39 4.8 16.1 0.00 0.66 0.56 46 1010.9
20260831231331 31 92 8.0 14.5 0.00 0.66 0.56 46 1010.9
20260831230338 31 111 4.8 16.1 0.00 0.66 0.56 46 1010.9
20260831225329 31 60 6.4 19.3 0.00 0.66 0.56 47 1011.0
20260831224335 31 86 6.4 22.5 0.00 0.66 0.56 46 1011.0
20260831223342 31 165 9.7 17.7 0.00 0.66 0.56 45 1011.1
20260831222330 31 159 8.0 17.7 0.00 0.66 0.56 47 1011.3
20260831221342 31 78 6.4 16.1 0.00 0.66 0.56 48 1011.6
20260831220330 30 203 8.0 17.7 0.00 0.66 0.56 48 1011.9
20260831215337 30 167 9.7 22.5 0.00 0.66 0.56 48 1012.2
20260831214329 30 173 9.7 24.1 0.00 0.66 0.56 48 1012.4
20260831213356 30 156 8.0 22.5 0.00 0.66 0.56 49 1012.7
20260831212342 30 53 11.3 20.9 0.00 0.66 0.56 50 1013.0
20260831211331 30 175 8.0 24.1 0.00 0.66 0.56 53 1013.2
20260831210336 30 128 6.4 22.5 0.00 0.66 0.56 54 1013.3
20260831205348 30 107 14.5 27.4 0.00 0.66 0.56 52 1013.6
20260831204333 30 160 8.0 22.5 0.00 0.66 0.56 52 1013.7
20260831203340 30 163 12.9 24.1 0.00 0.66 0.56 51 1013.8
20260831202407 29 163 9.7 25.7 0.00 0.66 0.56 53 1013.9
20260831201337 29 133 11.3 19.3 0.00 0.66 0.56 54 1013.9
20260831200344 29 92 8.0 16.1 0.00 0.66 0.56 57 1014.0
20260831195329 29 145 11.3 22.5 0.00 0.66 0.56 56 1013.9
20260831194336 28 188 11.3 19.3 0.00 0.66 0.56 58 1014.0
20260831193341 28 146 8.0 20.9 0.00 0.66 0.56 59 1014.1
20260831192332 27 101 11.3 22.5 0.00 0.66 0.56 60 1014.1
20260831191339 27 98 12.9 19.3 0.00 0.66 0.56 61 1014.2
20260831190326 27 137 8.0 19.3 0.00 0.66 0.56 67 1014.4
20260831185338 26 71 4.8 17.7 0.00 0.66 0.56 71 1014.6
20260831184345 26 67 3.2 9.7 0.00 0.66 0.56 73 1014.5
20260831183331 26 66 4.8 16.1 0.00 0.66 0.56 74 1014.5
20260831182338 26 142 4.8 16.1 0.00 0.66 0.56 75 1014.4
20260831181328 26 105 8.0 17.7 0.00 0.66 0.56 74 1014.6
20260831180336 25 119 9.7 17.7 0.00 0.66 0.56 74 1014.6
20260831175340 25 171 6.4 20.9 0.00 0.66 0.56 75 1014.6
20260831174326 25 90 8.0 16.1 0.00 0.66 0.56 76 1014.6
20260831173337 25 113 8.0 17.7 0.00 0.66 0.56 77 1014.7
20260831172345 25 114 6.4 16.1 0.00 0.66 0.56 78 1014.9
20260831171331 25 65 3.2 11.3 0.00 0.66 0.56 80 1014.9
20260831170358 25 62 4.8 14.5 0.00 0.66 0.56 82 1014.7
20260831165404 24 93 3.2 17.7 0.00 0.66 0.56 82 1014.8
20260831164353 24 66 1.6 14.5 0.00 0.66 0.56 84 1014.7
20260831163339 23 114 3.2 20.9 0.00 0.66 0.56 85 1014.7
20260831162345 23 70 3.2 12.9 0.00 0.66 0.56 86 1014.5
20260831161332 23 104 3.2 14.5 0.05 0.66 0.56 85 1014.4
20260831160339 23 115 1.6 14.5 0.15 0.66 0.56 84 1014.5
20260831155350 23 71 4.8 12.9 0.38 0.66 0.56 84 1014.4
20260831154336 23 93 9.7 20.9 0.53 0.66 0.56 85 1014.4
20260831153341 23 66 8.0 17.7 0.53 0.66 0.56 85 1014.2
20260831152329 23 88 8.0 24.1 0.53 0.66 0.56 85 1014.3
20260831151339 23 56 12.9 20.9 0.48 0.61 0.51 84 1014.2
20260831150326 24 119 11.3 19.3 0.36 0.48 0.38 81 1014.5
20260831145332 25 116 6.4 19.3 0.15 0.28 0.18 78 1014.3
20260831144359 25 119 6.4 16.1 0.03 0.13 0.03 74 1013.9
20260831143348 26 142 8.0 16.1 0.03 0.13 0.03 72 1013.9
20260831142333 26 93 11.3 20.9 0.03 0.13 0.03 70 1013.1
20260831141400 26 126 6.4 17.7 0.03 0.13 0.03 71 1012.8
20260831140345 26 144 6.4 14.5 0.03 0.13 0.03 72 1012.6
20260831135351 26 172 4.8 12.9 0.03 0.13 0.03 72 1012.5
20260831134340 27 109 6.4 16.1 0.00 0.10 0.00 68 1012.3
20260831133407 27 121 6.4 16.1 0.00 0.10 0.00 63 1012.2
20260831132330 27 93 4.8 12.9 0.00 0.10 0.00 61 1011.9
20260831131336 27 113 4.8 17.7 0.00 0.10 0.00 60 1011.6
20260831130328 27 99 8.0 14.5 0.00 0.10 0.00 59 1011.2
20260831125335 27 98 3.2 14.5 0.00 0.10 0.00 58 1011.1
20260831124342 27 109 6.4 12.9 0.00 0.10 0.00 59 1011.2
20260831123328 27 116 3.2 11.3 0.00 0.10 0.00 62 1011.0
20260831122337 27 111 0.0 0.0 0.00 0.10 0.00 64 1010.9
20260831121343 27 132 0.0 0.0 0.00 0.10 0.00 64 1010.8
20260831120330 27 81 0.0 0.0 0.00 0.10 0.00 63 1010.5
20260831115336 27 81 0.0 9.7 0.00 0.10 0.00 63 1010.5
20260831114327 26 27 0.0 0.0 0.00 0.10 0.00 64 1010.3
20260831113353 26 320 0.0 0.0 0.00 0.10 0.00 63 1010.3
20260831112338 26 320 0.0 0.0 0.00 0.10 0.00 64 1010.3
20260831111344 26 320 0.0 0.0 0.00 0.10 0.00 64 1010.0
20260831110356 26 320 0.0 0.0 0.00 0.10 0.00 63 1009.7
20260831105403 27 252 0.0 1.6 0.00 0.10 0.00 62 1009.5
20260831104329 27 252 0.0 0.0 0.00 0.10 0.00 62 1009.4
20260831103336 27 252 0.0 1.6 0.00 0.10 0.00 61 1009.1
20260831102327 27 252 0.0 1.6 0.00 0.10 0.00 61 1009.1
20260831101335 27 207 0.0 1.6 0.00 0.10 0.00 61 1009.2
20260831100341 27 113 0.0 4.8 0.00 0.10 0.00 60 1009.3
20260831095327 27 163 1.6 11.3 0.00 0.10 0.00 60 1009.3
20260831094334 27 182 3.2 9.7 0.00 0.10 0.00 61 1009.4
20260831093344 27 167 1.6 12.9 0.00 0.10 0.00 61 1009.7
20260831092332 27 187 6.4 11.3 0.00 0.10 0.00 61 1009.7
20260831091339 27 144 4.8 16.1 0.00 0.10 0.00 62 1009.9
20260831090329 27 163 6.4 17.7 0.00 0.10 0.00 61 1009.7
20260831085356 27 173 4.8 11.3 0.00 0.10 0.00 60 1009.6
20260831084401 27 76 1.6 9.7 0.00 0.10 0.00 58 1009.5
20260831083328 27 156 6.4 9.7 0.00 0.10 0.00 59 1009.6
20260831082355 27 180 3.2 9.7 0.00 0.10 0.00 60 1009.7
20260831081326 27 127 3.2 8.0 0.00 0.10 0.00 59 1009.7
20260831080353 27 53 9.7 19.3 0.00 0.10 0.00 59 1009.8
20260831075338 27 340 8.0 17.7 0.00 0.10 0.00 61 1009.6
20260831074406 27 345 8.0 22.5 0.00 0.10 0.00 62 1009.6
20260831073331 27 334 12.9 27.4 0.00 0.10 0.00 64 1009.7
20260831072341 27 348 14.5 29.0 0.00 0.10 0.00 66 1009.8
20260831071347 27 360 11.3 32.2 0.00 0.10 0.00 67 1009.9
20260831070332 26 327 9.7 25.7 0.03 0.10 0.00 67 1009.9
20260831065400 26 331 19.3 38.6 0.03 0.10 0.10 68 1009.8
20260831064329 26 255 16.1 33.8 0.03 0.10 0.10 70 1009.6
20260831063335 26 24 17.7 40.2 0.05 0.10 0.10 70 1009.3
20260831062342 27 317 16.1 33.8 0.05 0.10 0.10 67 1009.6
20260831061329 27 11 19.3 37.0 0.08 0.10 0.10 66 1009.3
20260831060340 27 355 12.9 27.4 0.05 0.08 0.08 63 1009.2
20260831055327 27 42 0.0 4.8 0.08 0.08 0.08 61 1009.1
20260831054334 28 268 1.6 20.9 0.08 0.08 0.08 59 1009.2
20260831053342 27 242 6.4 19.3 0.05 0.05 0.05 60 1009.2
20260831052353 27 239 6.4 25.7 0.05 0.05 0.05 62 1009.4
20260831051339 27 225 17.7 37.0 0.03 0.03 0.03 62 1009.8
20260831050326 27 236 20.9 46.7 0.03 0.03 0.03 61 1010.0
20260831045333 28 232 19.3 37.0 0.00 0.00 0.00 58 1009.7
20260831044400 29 175 17.7 46.7 0.00 0.00 0.00 57 1008.9
20260831043329 30 186 19.3 37.0 0.00 0.00 0.00 55 1008.7
20260831042336 32 153 11.3 30.6 0.00 0.00 0.00 55 1007.8
20260831041402 33 211 17.7 35.4 0.00 0.00 0.00 43 1007.6
20260831040326 35 213 19.3 33.8 0.00 0.00 0.00 38 1007.7
20260831035337 37 170 20.9 43.5 0.00 0.00 0.00 33 1007.5
20260831034344 38 272 0.0 12.9 0.00 0.00 0.00 29 1007.1
20260831033332 38 312 1.6 11.3 0.00 0.00 0.00 29 1006.7
20260831032358 38 279 3.2 8.0 0.00 0.00 0.00 29 1006.8
20260831031347 38 316 1.6 4.8 0.00 0.00 0.00 29 1006.7
20260831030334 38 284 1.6 6.4 0.00 0.00 0.00 29 1006.5
20260831025341 38 258 4.8 12.9 0.00 0.00 0.00 29 1006.5
20260831024329 38 260 3.2 8.0 0.00 0.00 0.00 30 1006.4
20260831023340 38 278 3.2 6.4 0.00 0.00 0.00 30 1006.2
20260831022406 38 303 4.8 16.1 0.00 0.00 0.00 30 1006.1
20260831021331 38 300 1.6 8.0 0.00 0.00 0.00 30 1005.9
20260831020337 38 319 4.8 8.0 0.00 0.00 0.00 30 1005.8
20260831015348 38 313 3.2 12.9 0.00 0.00 0.00 30 1005.5
20260831014333 39 284 3.2 9.7 0.00 0.00 0.00 29 1005.4
20260831013340 39 324 1.6 11.3 0.00 0.00 0.00 29 1005.3
20260831012327 40 302 4.8 8.0 0.00 0.00 0.00 28 1005.3
20260831011339 40 303 4.8 12.9 0.00 0.00 0.00 28 1005.4
20260831010344 40 297 6.4 12.9 0.00 0.00 0.00 27 1005.4